XM and Sirius
NORAD ID: 35493
Int'l Code: 2009-034A
Perigee: 35,786.2 km
Apogee: 35,801.4 km
Inclination: 0.0 °
Period: 1,436.1 minutes
Semi major axis: 42164 km
Launch date: June 30, 2009
Source: United States (US)
Comments: For the next 15 years, Sirius FM5 will supplement and expand the company's radio service to customers across North America. Sirius FM5 will be positioned in geostationary orbit at 96 degrees west longitude, becoming the company's first satellite to be stationed there.
Two Line Element Set (TLE):
1 35493U 09034A 13144.38613882 -.00000147 00000-0 00000+0 0 6979
2 35493 000.0233 323.3760 0001797 043.7933 277.9871 01.00271672 14317
Source: AFSPC
NASA's NSSDC Master Catalog entry for SIRIUS FM-5